Weather History for Zanesville, OH

Change the Weather History Date:

Tuesday, March 25, 2014

  Actual Average Record
Temperature  
Mean Temperature 32 °F 44 °F  
Max Temperature 40 °F 55 °F 77 °F (1986)
Min Temperature 23 °F 33 °F 6 °F (1974)
Degree Days  
Heating Degree Days 33 21  
Month to date heating degree days 745 632  
Since 1 July heating degree days 5302 4823  
Cooling Degree Days 0 0  
Month to date cooling degree days 0 0  
Year to date cooling degree days 0 0  
Moisture  
Dew Point 17 °F    
Average Humidity 54    
Maximum Humidity 69    
Minimum Humidity 38    
Precipitation  
Precipitation T in 0.11 in 1.63 in (1997)
Month to date precipitation 1.15 2.33  
Year to date precipitation 3.73 7.16  
Sea Level Pressure  
Sea Level Pressure 30.01 in    
Wind  
Wind Speed 6 mph (WNW)    
Max Wind Speed 28 mph    
Max Gust Speed 36 mph    
Visibility 8 miles    
Events Snow    
T = Trace of Precipitation, MM = Missing Value Source: NWS Daily Summary

Daily Weather History Graph

Daily Weather History Graph

Search for Another Location

Airport:

Trip Planner

Search our weather history database for the weather conditions in past years. The results will help you decide how hot, cold, wet, or windy it might be!

Date:

Astronomy

Mar. 25, 2014 Rise Set
Actual Time 7:22 AM EDT 7:44 PM EDT
Civil Twilight 6:55 AM EDT 8:11 PM EDT
Nautical Twilight 6:24 AM EDT 8:43 PM EDT
Astronomical Twilight 5:51 AM EDT 9:16 PM EDT
Moon 3:43 AM EDT (3/25) 2:14 PM EDT (3/25)
Length of Visible Light 13h 16m
Length of Day
12h 21m
Waning Crescent, 32% of the Moon is Illuminated
Mar 25
Waning Crescent
Mar 30
New
Apr 7
First Quarter
Apr 15
Full
Apr 22
Last Quarter

Hourly Weather History & Observations

Time (EDT) Temp. Windchill Dew Point Humidity Pressure Visibility Wind Dir Wind Speed Gust Speed Precip Events Conditions
12:53 AM 26.1 °F - 12.9 °F 58% 30.12 in 10.0 mi Calm Calm - N/A   Clear
1:53 AM 25.0 °F - 14.0 °F 63% 30.09 in 10.0 mi Calm Calm - N/A   Clear
2:53 AM 25.0 °F - 12.0 °F 58% 30.08 in 10.0 mi Calm Calm - N/A   Clear
3:53 AM 25.0 °F - 14.0 °F 63% 30.06 in 10.0 mi Calm Calm - N/A   Mostly Cloudy
4:53 AM 24.1 °F - 14.0 °F 65% 30.05 in 10.0 mi Calm Calm - N/A   Overcast
5:53 AM 24.1 °F - 15.1 °F 69% 30.03 in 10.0 mi Calm Calm - N/A   Overcast
6:53 AM 24.1 °F - 14.0 °F 65% 30.02 in 10.0 mi Calm Calm - N/A   Mostly Cloudy
7:53 AM 25.0 °F - 12.0 °F 58% 30.01 in 10.0 mi Calm Calm - N/A   Mostly Cloudy
8:53 AM 26.1 °F - 15.1 °F 63% 30.01 in 10.0 mi Calm Calm - N/A   Overcast
9:53 AM 30.0 °F - 10.9 °F 45% 30.00 in 10.0 mi Calm Calm - N/A   Overcast
10:53 AM 32.0 °F 28.7 °F 10.0 °F 40% 30.00 in 10.0 mi Variable 3.5 mph - N/A   Overcast
11:53 AM 34.0 °F 29.8 °F 12.0 °F 40% 29.99 in 10.0 mi SSW 4.6 mph - N/A   Overcast
12:53 PM 36.0 °F 29.6 °F 12.9 °F 39% 29.96 in 10.0 mi WNW 8.1 mph - N/A   Overcast
1:53 PM 36.0 °F 29.0 °F 14.0 °F 41% 29.96 in 10.0 mi WSW 9.2 mph - N/A   Overcast
2:53 PM 36.0 °F 29.0 °F 15.1 °F 43% 29.94 in 10.0 mi WSW 9.2 mph - N/A   Overcast
3:53 PM 36.0 °F - 14.0 °F 41% 29.93 in 10.0 mi Calm Calm - N/A   Overcast
4:53 PM 36.0 °F 29.6 °F 14.0 °F 41% 29.93 in 10.0 mi NNW 8.1 mph - N/A   Overcast
5:45 PM 30.9 °F 17.8 °F 23.0 °F 72% 29.93 in 1.8 mi WNW 23.0 mph 35.7 mph 0.00 in Snow Light Snow
5:47 PM 30.2 °F 17.1 °F 23.0 °F 75% 29.94 in 0.8 mi WNW 21.9 mph 35.7 mph 0.00 in Snow Light Snow
5:53 PM 28.0 °F 14.9 °F 23.0 °F 81% 29.98 in 0.2 mi WNW 19.6 mph 34.5 mph 0.00 in Snow Heavy Snow
5:56 PM 28.0 °F 15.7 °F 23.0 °F 81% 29.95 in 0.2 mi WNW 17.3 mph 34.5 mph 0.00 in Snow Heavy Snow
6:03 PM 28.0 °F 18.1 °F 23.0 °F 81% 29.95 in 0.2 mi NW 11.5 mph 21.9 mph 0.00 in Snow Heavy Snow
6:11 PM 30.0 °F 19.5 °F 25.0 °F 82% 29.95 in 0.8 mi NNW 13.8 mph - 0.00 in Snow Light Snow
6:16 PM 28.9 °F 17.7 °F 24.1 °F 82% 29.96 in 1.5 mi NNW 15.0 mph 25.3 mph 0.00 in Snow Light Snow
6:20 PM 28.9 °F 17.3 °F 23.0 °F 78% 29.96 in 3.0 mi NW 16.1 mph 25.3 mph 0.00 in Snow Light Snow
6:29 PM 28.9 °F 18.2 °F 23.0 °F 78% 29.97 in 9.0 mi NW 13.8 mph - 0.00 in   Mostly Cloudy
6:53 PM 30.0 °F 20.5 °F 21.9 °F 72% 30.01 in 10.0 mi NW 11.5 mph - 0.00 in   Mostly Cloudy
7:00 PM 30.0 °F 21.7 °F 21.0 °F 69% 29.98 in 10.0 mi WNW 9.2 mph - N/A   Scattered Clouds
7:53 PM 28.9 °F 19.2 °F 19.0 °F 67% 30.03 in 10.0 mi NNW 11.5 mph 20.7 mph N/A   Overcast
8:53 PM 27.0 °F 15.6 °F 18.0 °F 69% 30.06 in 10.0 mi NW 13.8 mph 21.9 mph 0.00 in   Overcast
9:53 PM 26.1 °F 14.0 °F 15.1 °F 63% 30.09 in 10.0 mi NW 15.0 mph - N/A   Clear
10:53 PM 25.0 °F 12.2 °F 12.9 °F 60% 30.11 in 10.0 mi NW 16.1 mph 25.3 mph N/A   Clear
11:53 PM 24.1 °F 15.2 °F 10.0 °F 55% 30.12 in 10.0 mi WNW 8.1 mph - N/A   Clear